AC8UJ Weather Reports


Display with metric or nautical units.
time (UTC)temp
F
wind
direction
speed
MPH
gust
MPH
rain 1hr
in
rain 24hr
in
rain mn
in
humidity
%
barometer
mb
20260503184516 61 208 1.0 4.0 0.00 0.00 0.00 38
20260503183517 61 203 2.0 9.0 0.00 0.00 0.00 36
20260503182514 61 223 1.0 3.0 0.00 0.00 0.00 36
20260503181516 61 206 1.0 4.0 0.00 0.00 0.00 36
20260503180515 61 227 1.0 2.0 0.00 0.00 0.00 37
20260503175516 61 186 3.0 8.0 0.00 0.00 0.00 36
20260503174517 61 213 1.0 4.0 0.00 0.00 0.00 37
20260503173537 61 221 2.0 5.0 0.00 0.00 0.00 36
20260503172517 61 210 2.0 5.0 0.00 0.00 0.00 35
20260503171515 61 193 1.0 5.0 0.00 0.00 0.00 36
20260503170515 60 224 0.0 2.0 0.00 0.00 0.00 36
20260503150519 56 231 1.0 4.0 0.00 0.00 0.00 46
20260503130516 48 231 1.0 3.0 0.00 0.00 0.00 60
20260503110516 39 225 0.0 1.0 0.00 0.00 0.00 73
20260503081517 38 196 0.0 1.0 0.00 0.00 0.00 76
20260503080538 38 194 0.0 1.0 0.00 0.00 0.00 76
20260503072516 38 0.0 0.0 0.00 0.00 0.00 75
20260503071516 38 0.0 0.0 0.00 0.00 0.00 75
20260503070517 39 0.0 0.0 0.00 0.00 0.00 74
20260503054520 40 22 0.0 1.0 0.00 0.00 0.00 70
20260503053555 39 0.0 0.0 0.00 0.00 0.00 71
20260503052515 39 0.0 0.0 0.00 0.00 0.00 72
20260503051517 39 0.0 0.0 0.00 0.00 0.00 73
20260503050516 39 0.0 0.0 0.00 0.00 0.00 73
20260503045536 39 0.0 0.0 0.00 0.00 0.00 72
20260503044518 39 0.0 0.0 0.00 0.00 0.00 72
20260503043517 39 0.0 0.0 0.00 0.00 0.00 74
20260503042516 40 0.0 0.0 0.00 0.00 0.00 73
20260503041515 40 0.0 0.0 0.00 0.00 0.00 74
20260503040516 40 0.0 0.0 0.00 0.00 0.00 73
20260503035516 40 0.0 0.0 0.00 0.00 0.00 73
20260503034519 40 0.0 0.0 0.00 0.00 0.00 73
20260503033538 39 0.0 0.0 0.00 0.00 0.00 73
20260503032518 39 0.0 0.0 0.00 0.00 0.00 72
20260503031515 39 0.0 0.0 0.00 0.00 0.00 69
20260503030515 39 0.0 0.0 0.00 0.00 0.00 68
20260503025517 40 0.0 0.0 0.00 0.00 0.00 68
20260503024517 40 0.0 0.0 0.00 0.00 0.00 65
20260503023536 40 0.0 0.0 0.00 0.00 0.00 64
20260503022516 41 0.0 0.0 0.00 0.00 0.00 63
20260503021519 42 0.0 0.0 0.00 0.00 0.00 62
20260503020515 43 0.0 0.0 0.00 0.00 0.00 61
20260503015600 43 0.0 0.0 0.00 0.00 0.00 60
20260503014517 43 0.0 0.0 0.00 0.00 0.00 59
20260503013639 44 18 0.0 1.0 0.00 0.00 0.00 58
20260503012519 44 18 0.0 1.0 0.00 0.00 0.00 57
20260503011518 45 0.0 0.0 0.00 0.00 0.00 55
20260503010517 46 0.0 0.0 0.00 0.00 0.00 53
20260503005535 47 323 0.0 1.0 0.00 0.00 0.00 52
20260503004537 47 304 0.0 4.0 0.00 0.00 0.00 51
20260503003517 48 314 0.0 2.0 0.00 0.00 0.00 49
20260503002517 49 310 1.0 5.0 0.00 0.00 0.00 48
20260503001516 49 298 0.0 3.0 0.00 0.00 0.00 47
20260503000558 50 306 1.0 4.0 0.00 0.00 0.00 46
20260502235517 50 311 1.0 5.0 0.00 0.00 0.00 44
20260502234515 51 303 1.0 9.0 0.00 0.00 0.00 44
20260502233515 51 290 0.0 3.0 0.00 0.00 0.00 45
20260502232515 51 314 1.0 5.0 0.00 0.00 0.00 45
20260502231516 51 305 0.0 2.0 0.00 0.00 0.00 44
20260502230517 51 302 1.0 3.0 0.00 0.00 0.00 44
20260502225518 52 292 1.0 2.0 0.00 0.00 0.00 42
20260502224539 52 299 1.0 6.0 0.00 0.00 0.00 41
20260502223515 53 320 1.0 3.0 0.00 0.00 0.00 42
20260502222515 53 271 1.0 4.0 0.00 0.00 0.00 42
20260502221558 52 285 0.0 1.0 0.00 0.00 0.00 42
20260502220516 52 305 1.0 4.0 0.00 0.00 0.00 41
20260502215516 52 269 0.0 3.0 0.00 0.00 0.00 41
20260502214517 53 276 1.0 3.0 0.00 0.00 0.00 40
20260502213517 52 293 1.0 4.0 0.00 0.00 0.00 40
20260502212515 53 273 1.0 3.0 0.00 0.00 0.00 40
20260502211515 53 297 1.0 5.0 0.00 0.00 0.00 41
20260502210516 53 269 1.0 4.0 0.00 0.00 0.00 38
20260502205516 53 258 1.0 3.0 0.00 0.00 0.00 39
20260502204516 53 285 2.0 7.0 0.00 0.00 0.00 39
20260502203517 52 318 1.0 5.0 0.00 0.00 0.00 40
20260502202514 53 285 2.0 6.0 0.00 0.00 0.00 41
20260502201518 52 268 1.0 5.0 0.00 0.00 0.00 40
20260502200516 53 306 1.0 8.0 0.00 0.00 0.00 40
20260502195515 52 298 2.0 7.0 0.00 0.00 0.00 40
20260502194516 52 271 2.0 6.0 0.00 0.00 0.00 39
20260502193537 52 269 2.0 8.0 0.00 0.00 0.00 40
20260502192538 53 281 1.0 5.0 0.00 0.00 0.00 39
20260502191536 53 307 2.0 8.0 0.00 0.00 0.00 40
20260502190535 53 276 1.0 5.0 0.00 0.00 0.00 41
20260502185518 53 290 2.0 8.0 0.00 0.00 0.00 40